Weather History for Haleyville, AL

Change the Weather History Date:

Wednesday, November 21, 2012

  Actual Average (KJFX) Record (KJFX)
Temperature  
Mean Temperature 50 °F -  
Max Temperature 65 °F 60 °F 77 °F (1979)
Min Temperature 36 °F 36 °F 19 °F (1968)
Degree Days  
Heating Degree Days 14    
Moisture  
Dew Point 43 °F    
Average Humidity 85    
Maximum Humidity 100    
Minimum Humidity 52    
Precipitation  
Precipitation 0.00 in - - ()
Sea Level Pressure  
Sea Level Pressure 30.23 in    
Wind  
Wind Speed 1 mph (North)    
Max Wind Speed 9 mph    
Max Gust Speed -    
Visibility 8 miles    
Events      
Averages and records for this station are not official NWS values.
T = Trace of Precipitation, MM = Missing Value Source: NWS Daily Summary

Daily Weather History Graph

Daily Weather History Graph

Search for Another Location

Airport:

Trip Planner

Search our weather history database for the weather conditions in past years. The results will help you decide how hot, cold, wet, or windy it might be!

Date:

Astronomy

Nov. 21, 2012 Rise Set
Actual Time 6:29 AM CST 4:42 PM CST
Civil Twilight 6:02 AM CST 5:09 PM CST
Nautical Twilight 5:32 AM CST 5:40 PM CST
Astronomical Twilight 5:02 AM CST 6:10 PM CST
Moon 12:44 PM CST (11/21) 12:04 AM CST (11/21)
Length of Visible Light 11h 07m
Length of Day
10h 13m
First Quarter, 62% of the Moon is Illuminated
Nov 21
First Quarter
Nov 28
Full
Dec 6
Last Quarter
Dec 13
New
Dec 19
First Quarter

Hourly Weather History & Observations

Time (CST) Temp. Dew Point Humidity Pressure Visibility Wind Dir Wind Speed Gust Speed Precip Events Conditions
12:56 AM 41.0 °F 39.9 °F 96% 30.19 in 10.0 mi Calm Calm - N/A   Clear
1:56 AM 41.0 °F 39.9 °F 96% 30.18 in 10.0 mi Calm Calm - N/A   Clear
2:56 AM 39.9 °F 38.8 °F 96% 30.19 in 9.0 mi Calm Calm - N/A   Clear
3:56 AM 38.8 °F 38.8 °F 100% 30.19 in 8.0 mi Calm Calm - N/A   Clear
4:56 AM 38.8 °F 37.9 °F 97% 30.20 in 6.0 mi Calm Calm - N/A   Clear
5:56 AM 37.9 °F 37.9 °F 100% 30.21 in 8.0 mi Calm Calm - N/A   Clear
6:56 AM 36.9 °F 36.9 °F 100% 30.23 in 5.0 mi Calm Calm - N/A   Clear
7:56 AM 46.9 °F 45.0 °F 93% 30.25 in 8.0 mi Calm Calm - N/A   Clear
8:56 AM 55.9 °F 47.8 °F 74% 30.25 in 10.0 mi Calm Calm - N/A   Clear
9:56 AM 61.9 °F 48.9 °F 62% 30.27 in 10.0 mi Calm Calm - N/A   Clear
10:56 AM 63.9 °F 47.8 °F 56% 30.26 in 10.0 mi NNE 6.9 mph - N/A   Clear
11:56 AM 65.8 °F 48.9 °F 54% 30.25 in 10.0 mi North 9.2 mph - N/A   Partly Cloudy
12:56 PM 65.8 °F 48.9 °F 54% 30.23 in 10.0 mi North 5.8 mph - N/A   Partly Cloudy
2:56 PM 65.8 °F 47.8 °F 52% 30.23 in 10.0 mi North 4.6 mph - N/A   Clear
3:56 PM 63.9 °F 46.9 °F 54% 30.22 in 10.0 mi North 3.5 mph - N/A   Clear
4:56 PM 56.8 °F 47.8 °F 72% 30.22 in 10.0 mi Calm Calm - N/A   Clear
5:56 PM 52.0 °F 45.9 °F 80% 30.24 in 10.0 mi Calm Calm - N/A   Clear
6:56 PM 46.9 °F 45.0 °F 93% 30.25 in 10.0 mi Calm Calm - N/A   Clear
7:56 PM 45.9 °F 43.9 °F 93% 30.26 in 10.0 mi Calm Calm - N/A   Clear
8:56 PM 43.9 °F 43.9 °F 100% 30.27 in 6.0 mi Calm Calm - N/A   Clear
9:56 PM 41.0 °F 41.0 °F 100% 30.26 in 5.0 mi Calm Calm - N/A   Clear
10:56 PM 39.9 °F 39.9 °F 100% 30.26 in 2.0 mi Calm Calm - N/A   Clear
11:22 PM 39.2 °F 39.2 °F 100% 30.23 in 3.0 mi Calm Calm - N/A   Clear
11:33 PM 37.4 °F 37.4 °F 100% 30.23 in 2.0 mi Calm Calm - N/A   Clear
11:56 PM 38.8 °F 38.8 °F 100% 30.26 in 3.0 mi Calm Calm - N/A   Clear